Location: Cheching
(60.0667°N, 164.2167°W)
Time: 11:12:26
(UTC+00:00)

XW-2D - Visible Passes

Search period start: 16 January 2021 00:00
Search period end: 26 January 2021 00:00
Orbit: 506 x 525 km, 97.5° (Epoch: 16 January)

Date Brightness Start Highest point End Pass type
(mag) Time Alt. Az. Time Alt. Az. Time Alt. Az.
16 Jan ? 03:56:50 10° S 04:00:32 62° WSW 04:04:18 10° NNW visible
16 Jan ? 05:34:31 10° W 05:35:25 11° W 05:36:19 10° WNW visible
16 Jan ? 16:52:38 10° NNE 16:56:21 49° E 17:00:04 10° S visible
16 Jan ? 18:26:58 10° N 18:30:17 28° WNW 18:33:35 10° WSW visible
17 Jan ? 03:41:57 10° SSE 03:45:42 84° WSW 03:49:30 10° NNW visible
17 Jan ? 05:18:21 10° WSW 05:20:24 14° W 05:22:29 10° NW visible
17 Jan ? 16:37:54 10° NNE 16:41:28 36° E 16:45:02 10° SSE visible
17 Jan ? 18:12:02 10° N 18:15:33 36° WNW 18:19:05 10° SW visible
18 Jan ? 03:27:10 10° SSE 03:30:53 73° ENE 03:34:41 10° NNW visible
18 Jan ? 05:02:44 10° SW 05:05:25 18° W 05:08:07 10° NW visible
18 Jan ? 16:23:13 10° NNE 16:26:33 28° E 16:29:53 10° SSE visible
18 Jan ? 17:57:08 10° N 18:00:49 47° WNW 18:04:30 10° SW visible
19 Jan ? 04:47:22 10° SSW 04:50:27 24° W 04:53:34 10° NW visible
19 Jan ? 16:08:37 10° NE 16:11:37 21° E 16:14:37 10° SE visible
19 Jan ? 17:42:15 10° NNE 17:46:02 62° WNW 17:49:49 10° SSW visible
20 Jan ? 04:32:08 10° SSW 04:35:31 31° W 04:38:57 10° NNW visible
20 Jan ? 15:54:08 10° NE 15:56:39 17° E 15:59:10 10° SE visible
20 Jan ? 17:27:23 10° NNE 17:31:15 83° WNW 17:35:04 10° SSW visible
21 Jan ? 04:17:02 10° S 04:20:37 41° W 04:24:15 10° NNW visible
21 Jan ? 15:39:52 10° NE 15:41:39 13° E 15:43:26 10° ESE visible
21 Jan ? 17:12:34 10° NNE 17:16:25 74° ESE 17:20:14 10° S visible
22 Jan ? 04:02:02 10° S 04:05:44 56° WSW 04:09:29 10° NNW visible
22 Jan ? 16:57:47 10° NNE 17:01:33 54° E 17:05:19 10° S visible
22 Jan ? 18:32:11 10° N 18:35:25 26° WNW 18:38:39 10° WSW visible
23 Jan ? 03:47:07 10° SSE 03:50:52 76° WSW 03:54:42 10° NNW visible
23 Jan ? 05:23:50 10° WSW 05:25:38 13° W 05:27:27 10° NW visible
23 Jan ? 16:43:01 10° NNE 16:46:41 40° E 16:50:18 10° S visible
23 Jan ? 18:17:14 10° N 18:20:42 33° WNW 18:24:10 10° SW visible
24 Jan ? 03:32:17 10° SSE 03:36:03 80° ENE 03:39:52 10° NNW visible
24 Jan ? 05:08:06 10° SW 05:10:38 17° W 05:13:10 10° NW visible
24 Jan ? 16:28:19 10° NNE 16:31:46 31° E 16:35:11 10° SSE visible
24 Jan ? 18:02:18 10° N 18:05:57 43° WNW 18:09:36 10° SW visible
25 Jan ? 04:52:39 10° SW 04:55:39 22° W 04:58:40 10° NW visible
25 Jan ? 16:13:40 10° NE 16:16:48 24° E 16:19:57 10° SSE visible
25 Jan ? 17:47:24 10° N 17:51:11 57° WNW 17:54:56 10° SW visible
